Location: Unspecified
(0.0000°N, 0.0000°E)
Time: 10:47:59
(UTC+00:00)

Explorer 11/Cluster Stage 4 - Pass Details

Date: 06 October 2020
Orbit: 467 x 1258 km, 28.8° (Epoch: 28 October)

Event Time Altitude Azimuth Distance (km) Brightness Sun altitude
Rises 16:07:17 0° 227° (SW) 3,168 10.5 25.0°
Reaches altitude 10° 16:10:08 10° 218° (SW) 2,103 9.5 24.3°
Maximum altitude 16:14:31 34° 153° (SSE) 968 7.1 23.2°
Drops below altitude 10° 16:18:11 10° 86° (E) 1,759 7.9 22.3°
Sets 16:20:23 0° 77° (ENE) 2,576 8.6 21.8°
